Miscellaneous Local Product
Issued by NWS North Platte, NE

Home | Current Version | Previous Version | Text Only | Print | Product List | Glossary On
Versions: 1 2 3 4 5 6 7 8 9 10 11 12 13 14 15 16 17 18 19 20 21 22 23 24 25 26 27 28 29 30 31 32 33 34 35 36 37 38 39 40 41 42 43 44 45 46 47 48 49 50
000
AXUS43 KLBF 181310
MISLBF


WESTERN AND NORTH CENTRAL NEBRASKA HOURLY WEATHER ROUNDUP
NATIONAL WEATHER SERVICE NORTH PLATTE NE
800 AM CDT SAT APR 18 2015

***STATIONS NOT REPORTING VARIABLES SUCH AS SKY/WEATHER OR
PRESSURE ARE PROVIDED BY THE NEBRASKA DEPARTMENT OF
ROADS...RAWS...AND APRS NETWORKS...AND ARE NOT UNDER
NATIONAL WEATHER SERVICE QUALITY CONTROL***

...OBSERVATIONS IN AND NEAR THE EASTERN PANHANDLE OF NEBRASKA...

CITY           SKY/WX    TMP DP  RH WIND       PRES   REMARKS
PINE RIDGE     LGT RAIN  46  42  86 E13G23    29.95F FOG
CHADRON        LGT RAIN  47  45  93 NE9       29.95F
ALLIANCE       CLOUDY    45  44  97 SW6       29.91R
SIDNEY         CLOUDY    40  38  93 NW8       29.93S WCI  34
WHITECLAY        N/A     44  42  95 E3          N/A
CRESCENT LAKE    N/A     45  44  97 W3          N/A
BIG SPRINGS      N/A     46  45  96 NW3         N/A
$$

...OBSERVATIONS IN NORTH CENTRAL NEBRASKA...

CITY           SKY/WX    TMP DP  RH WIND       PRES   REMARKS
VALENTINE      RAIN      49  48  97 NE12      29.94F FOG
THEDFORD       CLOUDY    49  49  98 NE7       29.92F
AINSWORTH      LGT RAIN  50  49  99 NE18      29.89F
O`NEILL        HVY RAIN  53  52  97 W3        29.97R
ORD            CLOUDY    53  51  93 CALM      29.90
BROKEN BOW     CLOUDY    52  51  97 N3        29.91R FOG
SPRINGVIEW       N/A     50  48  93 CALM        N/A
ROSE             N/A     51  51  99 N10         N/A
NEWPORT          N/A     50  49  99 CALM        N/A
SARGENT          N/A     52  51  97 CALM        N/A
COMSTOCK         N/A     55  55  99 E5          N/A
EWING            N/A     55  52  89 N3          N/A
$$

...OBSERVATIONS IN SOUTHWEST NEBRASKA AND FAR NORTHEAST COLORADO...

CITY           SKY/WX    TMP DP  RH WIND       PRES   REMARKS
WRAY           CLOUDY   N/A N/A N/A N3        29.92R FOG
HOLYOKE        CLOUDY    45  43  93 N7        29.91S
IMPERIAL       FOG       43  43 100 CALM      29.93R VSB 3/4
OGALLALA       FOG       43  42  98 CALM      29.91R VSB 1
NORTH PLATTE   PTSUNNY   47  46  97 E7        29.92R FOG
MCCOOK         SUNNY     47  44  90 SW3       29.93R
LEXINGTON      MOSUNNY   48  47  93 CALM      29.92R
PAXTON           N/A     46  44  94 CALM        N/A
SUTHERLAND       N/A     39  37  93 E3          N/A
BRADY            N/A     45  43  93 CALM        N/A
GOTHENBURG       N/A     49  45  86 CALM        N/A
CALLAWAY         N/A     49  48  97 NW5         N/A
$$

...NORTH PLATTE AREA...

CITY           SKY/WX    TMP DP  RH WIND       PRES   REMARKS
AIRPORT        PTSUNNY   47  46  97 E7        29.92R FOG
DOWNTOWN         N/A     47  46  95 CALM        N/A
$$

...SOME WEATHER OBSERVATIONS FROM AROUND THE REGION...

CITY           SKY/WX    TMP DP  RH WIND       PRES   REMARKS
DENVER         CLOUDY    38  36  92 CALM      29.95F
LARAMIE        SNOW      28  27  96 E3        29.96S VSB 1/2
CHEYENNE       CLOUDY    35  32  88 NW9       29.94F WCI  28
SCOTTSBLUFF    CLOUDY    43  32  65 W6        29.93F
RAPID CITY     CLOUDY    47  45  93 NW5       30.00F
PIERRE         CLOUDY    51  32  48 NE6       29.98S
WINNER         LGT RAIN  51  39  63 SE5       29.97R
SIOUX FALLS    CLOUDY    54  36  50 NE10      30.00F
OMAHA          LGT RAIN  63  56  78 E13       29.92F
GRAND ISLAND   LGT RAIN  55  53  93 E12       29.89F
KANSAS CITY    CLOUDY    62  58  86 SE7       29.91R
WICHITA        CLOUDY    60  58  92 SW3       29.91F
HAYS           CLOUDY    52  45  76 E5        29.91S
LIBERAL        PTCLDY    43  36  75 W9        29.92R
GOODLAND       FOG       42  42 100 E6        29.91S VSB<1/4
$$



USA.gov is the U.S. government's official web portal to all federal, state and local government web resources and services.